Regional Weather Roundup
Issued by NWS

Home | Current Version | Previous Version | Graphics & Text | Print | Product List | Glossary On
Versions: 1 2 3 4 5 6 7 8 9 10 11 12 13 14 15 16 17 18 19 20 21 22 23 24 25 26 27 28 29 30 31 32 33 34 35 36 37 38 39 40 41 42 43 44 45 46 47 48 49 50
000
ASUS43 KLOT 290200
RWRIL

ILLINOIS REGIONAL WEATHER ROUNDUP
NATIONAL WEATHER SERVICE CHICAGO/ROMEOVILLE IL
900 PM CDT TUE JUL 28 2015

NOTE: "FAIR" INDICATES FEW OR NO CLOUDS BELOW 12,000 FEET WITH NO
SIGNIFICANT WEATHER AND/OR OBSTRUCTIONS TO VISIBILITY.

* THESE STATIONS ARE NOT UNDER NWS QUALITY CONTROL. THEY ALSO MAY NOT
  REPORT WEATHER SUCH AS PRECIPITATION OR FOG.

ILZ001-002-007-009-015-016-024-290300-
NORTHWEST ILLINOIS

CITY           SKY/WX    TMP DP  RH WIND       PRES   REMARKS
MOLINE         MOCLDY    82  75  79 NE3       29.89F HX  89
STERLING*      CLOUDY    79  75  89 SW3       29.93R THUNDER HX  82
$$

ILZ003-004-008-010-011-017-018-290300-
NORTH CENTRAL ILLINOIS

CITY           SKY/WX    TMP DP  RH WIND       PRES   REMARKS
ROCKFORD       MOCLDY    80  72  76 S7        29.94S HX  84
$$

ILZ005-006-012>014-019>023-290300-
NORTHEAST ILLINOIS

CITY           SKY/WX    TMP DP  RH WIND       PRES   REMARKS
CHICAGO-OHARE  MOCLDY    83  72  69 SW6       29.94R HX  88
CHICAGO-MIDWAY MOCLDY    86  70  58 SW6       29.94R HX  90
AURORA         PTCLDY    78  73  84 CALM      29.95R HX  81
LANSING*       CLEAR     80  69  68 CALM      29.95R HX  83
WAUKEGAN       PTCLDY    75  70  84 CALM      29.94R
DUPAGE AIRPORT CLEAR     80  75  84 SW5       29.95R HX  85
WHEELING       CLEAR     84  71  65 W3        29.95R HX  89
NORTHERLY ISL    N/A     86  68  54 SW8         N/A  HX  89
$$

LMZ740>746-290300-
SOUTHERN LAKE MICHIGAN

STATION/POSITION SKY/WX   TEMP    WIND        PRES    VSBY  WAVE
                          AIR SEA DIR/SP/G                  HT/PER
                          (F)     (DEG/KT/KT) (MB)    (MI)  (FT/S)
HARRISON CRIB              77     160/  2/  3   N/A
BURNHAM HARBOR             81     130/  2/  3   N/A
CALUMET HARBOR             86     210/  5/  9   N/A
BURNS HARBOR               85     190/  5/  8 1013.5S
MICHIGAN CITY              85     110/  5/  7   N/A
MICHIGAN CITY 6N           80 76  160/  4/  6   N/A           0
ST. JOSEPH                 80 77  200/  4/  4   N/A           0
$$

ILZ025>027-034>036-040-047-049-050-058-095>099-290300-
WEST-CENTRAL ILLINOIS

CITY           SKY/WX    TMP DP  RH WIND       PRES   REMARKS
QUINCY         CLEAR     86  80  82 CALM      29.92R HX 101
MACOMB*        CLEAR     81  79  92 CALM      29.95R HX  90
$$

ILZ028>032-037-038-041>044-048-051>054-059>061-290300-
CENTRAL ILLINOIS

CITY           SKY/WX    TMP DP  RH WIND       PRES   REMARKS
DECATUR        MOCLDY    78  73  84 SE3       29.97R HX  81
PEORIA         MOCLDY    83  73  72 SE5       29.94R HX  89
SPRINGFIELD    MOCLDY    83  75  77 SE7       29.94R HX  90
TAYLORVILLE    NOT AVBL
$$

ILZ033-039-045-046-055>057-062-063-290300-
EAST-CENTRAL ILLINOIS

CITY           SKY/WX    TMP DP  RH WIND       PRES   REMARKS
CHAMPAIGN      MOCLDY    75  73  93 CALM      29.97R
MATTOON        MOCLDY    77  72  84 CALM      29.96R
$$

ILZ079-100>102-290300-
SOUTHWEST ILLINOIS

CITY           SKY/WX    TMP DP  RH WIND       PRES   REMARKS
ALTON          PTCLDY    79  77  94 SE6       29.95R HX  83
BELLEVILLE     MOCLDY    80  80  99 CALM      29.93R HX  90
CAHOKIA*       MOCLDY    82  77  84 E3        29.93R HX  90
SPARTA*        CLOUDY    82  74  78 S3        29.96R HX  87
$$

ILZ064>066-069>071-074>076-080>082-084>086-088>090-092>094-290300-
SOUTH-CENTRAL ILLINOIS

CITY           SKY/WX    TMP DP  RH WIND       PRES   REMARKS
CARBONDALE     CLOUDY    78  75  90 NE5       29.96R HX  81
MT. VERNON     CLOUDY    79  72  78 S7        29.98R HX  82
SALEM*         CLOUDY    85  79  81 CALM      29.96R HX  98
$$

ILZ067-068-072-073-078-083-087-091-290300-
SOUTHEAST ILLINOIS

CITY           SKY/WX    TMP DP  RH WIND       PRES   REMARKS
LAWRENCEVILLE  MOCLDY    82  77  84 SW5       29.96R HX  90
HARRISBURG*    CLOUDY    76  76  99 S3        29.99R
ROBINSON*      PTCLDY    78  76  94 W3        29.96R HX  82
$$

ABBREVIATIONS USED IN REMARKS
   TC - TEMPERATURE IN CELSIUS
  WCI - WIND CHILL INDEX
   HX - HEAT INDEX
  VSB - VISIBILITY
$$




USA.gov is the U.S. government's official web portal to all federal, state and local government web resources and services.